North Myrtle Beach, SC

5:59 AM EDT on September 21, 2017 (GMT -0400)
Grand Strand

Weather History for KCRE - November, 2011

Change the Weather History Date:

Wednesday, November 16, 2011

  Actual Average Record
Temperature  
Mean Temperature 70 °F 56 °F  
Max Temperature 73 °F 67 °F 84 °F (1993)
Min Temperature 66 °F 46 °F 30 °F (2000)
Degree Days  
Heating Degree Days 0 9  
Month to date heating degree days 118 117  
Since 1 July heating degree days 231 207  
Cooling Degree Days 5 0  
Month to date cooling degree days 7 12  
Year to date cooling degree days 2198 1895  
Growing Degree Days 19 (Base 50)    
Moisture  
Dew Point 66 °F    
Average Humidity 92    
Maximum Humidity 100    
Minimum Humidity 84    
Precipitation  
Precipitation 0.41 in 0.10 in 1.31 in (2006)
Month to date precipitation 1.60 1.61  
Year to date precipitation 31.15 47.12  
Sea Level Pressure  
Sea Level Pressure 29.93 in    
Wind  
Wind Speed 12 mph (SW)    
Max Wind Speed 25 mph    
Max Gust Speed 30 mph    
Visibility 4 miles    
Events Fog , Rain , Thunderstorm    
T = Trace of Precipitation, MM = Missing Value Source: NWS Daily Summary

Daily Weather History Graph

Daily Weather History Graph

Search for Another Location

Airport or City:

Trip Planner

Search our weather history database for the weather conditions in past years. The results will help you decide how hot, cold, wet, or windy it might be!

Date:

Astronomy

Nov. 16, 2011 Rise Set
Actual Time 6:47 AM EST 5:11 PM EST
Civil Twilight 6:21 AM EST 5:37 PM EST
Nautical Twilight 5:50 AM EST 6:07 PM EST
Astronomical Twilight 5:21 AM EST 6:37 PM EST
Moon 10:20 PM EST (11/16) 11:23 AM EST (11/16)
Length of Visible Light 11h 16m
Length of Day
10h 23m
Waning Gibbous, 70% of the Moon is Illuminated
Nov 16
Waning Gibbous
Nov 18
Last Quarter
Nov 25
New
Dec 2
First Quarter
Dec 10
Full

Hourly Weather History & Observations

Time (EST) Temp. Dew Point Humidity Pressure Visibility Wind Dir Wind Speed Gust Speed Precip Events Conditions
12:04 AM 68.0 °F 68.0 °F 100% 29.98 in 0.8 mi SW 5.8 mph - N/A   Mist
12:13 AM 68.0 °F 68.0 °F 100% 29.98 in 1.5 mi SSW 6.9 mph - N/A   Overcast
12:48 AM 68.0 °F 66.2 °F 94% 29.98 in 0.2 mi SW 6.9 mph - N/A Fog Fog
12:53 AM 68.0 °F 68.0 °F 100% 29.98 in 0.2 mi SW 6.9 mph - N/A Fog Fog
1:53 AM 66.9 °F 66.9 °F 100% 29.98 in 0.2 mi SW 9.2 mph - N/A Fog Fog
2:33 AM 66.2 °F 66.2 °F 100% 29.97 in 1.2 mi WSW 4.6 mph - N/A   Overcast
2:53 AM 66.9 °F 66.0 °F 97% 29.98 in 3.0 mi West 3.5 mph - N/A   Overcast
3:16 AM 68.0 °F 66.2 °F 94% 29.97 in 7.0 mi WSW 8.1 mph - N/A   Overcast
3:46 AM 68.0 °F 68.0 °F 100% 29.97 in 10.0 mi SW 6.9 mph - N/A   Overcast
3:53 AM 69.1 °F 68.0 °F 96% 29.97 in 10.0 mi SW 6.9 mph - N/A   Overcast
4:37 AM 66.2 °F 66.2 °F 100% 29.95 in 10.0 mi SSW 5.8 mph - N/A   Scattered Clouds
4:53 AM 66.9 °F 66.0 °F 97% 29.95 in 7.0 mi SSW 5.8 mph - N/A   Clear
4:56 AM 66.2 °F 64.4 °F 94% 29.95 in 2.5 mi SSW 5.8 mph - N/A   Partly Cloudy
5:01 AM 66.2 °F 64.4 °F 94% 29.95 in 1.0 mi SW 3.5 mph - N/A   Mist
5:13 AM 66.2 °F 64.4 °F 94% 29.95 in 0.5 mi SW 9.2 mph - N/A Fog Fog
5:21 AM 66.2 °F 64.4 °F 94% 29.95 in 0.2 mi SW 9.2 mph - N/A Fog Fog
5:35 AM 66.2 °F 66.2 °F 100% 29.95 in 0.8 mi SW 8.1 mph - N/A   Mist
5:42 AM 66.2 °F 66.2 °F 100% 29.95 in 2.0 mi SW 8.1 mph - N/A   Overcast
5:53 AM 66.9 °F 66.9 °F 100% 29.95 in 3.0 mi SW 8.1 mph - N/A   Overcast
6:23 AM 66.2 °F 66.2 °F 100% 29.95 in 6.0 mi WSW 4.6 mph - N/A   Overcast
6:41 AM 66.2 °F 66.2 °F 100% 29.96 in 7.0 mi Calm Calm - N/A   Overcast
6:53 AM 66.9 °F 66.9 °F 100% 29.96 in 6.0 mi SSW 3.5 mph - N/A   Overcast
7:15 AM 66.2 °F 64.4 °F 94% 29.97 in 1.8 mi SSW 5.8 mph - N/A   Overcast
7:19 AM 66.2 °F 64.4 °F 94% 29.97 in 0.8 mi SSW 5.8 mph - N/A   Overcast
7:40 AM 66.2 °F 66.2 °F 100% 29.97 in 1.8 mi SW 3.5 mph - N/A   Overcast
7:47 AM 66.2 °F 66.2 °F 100% 29.97 in 3.0 mi Calm Calm - N/A   Mostly Cloudy
7:48 AM 66.9 °F 66.0 °F 97% 29.97 in 3.0 mi Calm Calm - N/A   Mostly Cloudy
7:55 AM 66.2 °F 66.2 °F 100% 29.97 in 4.0 mi Calm Calm - N/A   Mostly Cloudy
8:04 AM 68.0 °F 66.2 °F 94% 29.98 in 4.0 mi Calm Calm - N/A   Scattered Clouds
8:49 AM 68.0 °F 66.2 °F 94% 29.98 in 0.5 mi SSW 5.8 mph - N/A Fog Fog
8:53 AM 66.9 °F 66.9 °F 100% 29.99 in 0.5 mi SSW 5.8 mph - N/A Fog Fog
9:16 AM 66.2 °F 66.2 °F 100% 29.98 in 0.2 mi SSW 6.9 mph - N/A Fog Fog
9:25 AM 66.2 °F 66.2 °F 100% 29.98 in 0.8 mi South 6.9 mph - N/A   Mist
9:41 AM 66.2 °F 66.2 °F 100% 29.97 in 0.2 mi SSW 8.1 mph - N/A Fog Fog
9:50 AM 66.2 °F 66.2 °F 100% 29.97 in 1.0 mi SSW 8.1 mph - N/A   Mist
9:51 AM 66.9 °F 66.0 °F 97% 29.97 in 1.0 mi SSW 8.1 mph - N/A   Overcast
9:59 AM 66.2 °F 66.2 °F 100% 29.97 in 3.0 mi SW 6.9 mph - N/A   Overcast
10:24 AM 71.6 °F 66.2 °F 83% 29.97 in 10.0 mi SSW 11.5 mph - N/A   Scattered Clouds
11:53 AM 72.0 °F 66.0 °F 81% 29.93 in 4.0 mi SSW 13.8 mph - N/A   Haze
12:53 PM 72.0 °F 66.0 °F 81% 29.90 in 6.0 mi SSW 15.0 mph - N/A   Haze
1:53 PM 71.1 °F 66.0 °F 84% 29.88 in 6.0 mi SW 16.1 mph - N/A   Haze
2:53 PM 70.0 °F 66.0 °F 87% 29.87 in 6.0 mi SSW 18.4 mph - N/A   Clear
3:53 PM 70.0 °F 66.0 °F 87% 29.86 in 10.0 mi SW 18.4 mph 27.6 mph N/A   Clear
4:25 PM 69.8 °F 66.2 °F 88% 29.85 in 8.0 mi SW 17.3 mph 25.3 mph N/A   Partly Cloudy
4:38 PM 68.0 °F 66.2 °F 94% 29.86 in 7.0 mi SW 19.6 mph - N/A   Mostly Cloudy
4:50 PM 68.0 °F 66.2 °F 94% 29.86 in 2.5 mi SW 19.6 mph 26.5 mph N/A   Overcast
4:53 PM 66.9 °F 66.0 °F 97% 29.87 in 1.5 mi SW 20.7 mph 29.9 mph N/A   Overcast
5:03 PM 66.2 °F 66.2 °F 100% 29.86 in 0.8 mi SW 21.9 mph - N/A   Overcast
5:11 PM 66.2 °F 66.2 °F 100% 29.86 in 1.8 mi SW 19.6 mph - N/A   Overcast
5:15 PM 66.2 °F 66.2 °F 100% 29.86 in 3.0 mi SW 19.6 mph 27.6 mph N/A   Overcast
5:53 PM 68.0 °F 66.9 °F 96% 29.87 in 4.0 mi SSW 15.0 mph - N/A   Overcast
6:18 PM 68.0 °F 66.2 °F 94% 29.87 in 1.8 mi SSW 17.3 mph 26.5 mph N/A   Overcast
6:29 PM 68.0 °F 66.2 °F 94% 29.87 in 2.5 mi SSW 19.6 mph 26.5 mph N/A   Overcast
7:22 PM 68.0 °F 66.2 °F 94% 29.87 in 3.0 mi SSW 12.7 mph 23.0 mph N/A   Overcast
7:44 PM 68.0 °F 66.2 °F 94% 29.88 in 5.0 mi SSW 13.8 mph - N/A   Overcast
7:53 PM 68.0 °F 66.0 °F 93% 29.88 in 5.0 mi SW 15.0 mph - N/A   Overcast
8:32 PM 68.0 °F 66.2 °F 94% 29.88 in 4.0 mi SW 15.0 mph - 0.03 in Rain Rain
8:53 PM 68.0 °F 66.9 °F 96% 29.89 in 6.0 mi SW 17.3 mph - 0.03 in Rain Light Rain
9:15 PM 68.0 °F 66.2 °F 94% 29.89 in 5.0 mi SW 12.7 mph - 0.00 in Rain , Thunderstorm Light Thunderstorms and Rain
9:22 PM 69.8 °F 66.2 °F 88% 29.92 in 1.8 mi WSW 20.7 mph 29.9 mph 0.21 in Rain , Thunderstorm Heavy Thunderstorms and Rain
9:33 PM 68.0 °F 64.4 °F 88% 29.90 in 3.0 mi SW 18.4 mph 29.9 mph 0.30 in Rain , Thunderstorm Thunderstorms and Rain
9:53 PM 69.1 °F 64.9 °F 87% 29.90 in 10.0 mi SSW 15.0 mph - 0.30 in Rain Light Rain
10:53 PM 66.9 °F 64.9 °F 93% 29.90 in 9.0 mi SW 9.2 mph - 0.00 in Rain Light Rain
11:21 PM 66.2 °F 64.4 °F 94% 29.88 in 4.0 mi SSW 13.8 mph - 0.06 in Rain , Thunderstorm Rain
11:53 PM 66.9 °F 64.9 °F 93% 29.87 in 9.0 mi SSW 17.3 mph - 0.08 in Rain , Thunderstorm Light Rain